Weather History for Gadsden, AL

Change the Weather History Date:

Tuesday, February 5, 2013

  Actual Average Record
Temperature  
Mean Temperature 47 °F -  
Max Temperature 57 °F 52 °F 73 °F (1938)
Min Temperature 37 °F 32 °F 12 °F (2009)
Degree Days  
Heating Degree Days 18    
Moisture  
Dew Point 41 °F    
Average Humidity 80    
Maximum Humidity 93    
Minimum Humidity 62    
Precipitation  
Precipitation 0.00 in - - ()
Sea Level Pressure  
Sea Level Pressure 30.02 in    
Wind  
Wind Speed 0 mph (SSW)    
Max Wind Speed 6 mph    
Max Gust Speed -    
Visibility 9 miles    
Events      
Averages and records for this station are not official NWS values.
T = Trace of Precipitation, MM = Missing Value Source: NWS Daily Summary

Daily Weather History Graph

Daily Weather History Graph

Search for Another Location

Airport:

Trip Planner

Search our weather history database for the weather conditions in past years. The results will help you decide how hot, cold, wet, or windy it might be!

Date:

Astronomy

Feb. 05, 2013 Rise Set
Actual Time 6:38 AM CST 5:19 PM CST
Civil Twilight 6:12 AM CST 5:45 PM CST
Nautical Twilight 5:42 AM CST 6:14 PM CST
Astronomical Twilight 5:13 AM CST 6:44 PM CST
Moon 2:14 AM CST (2/5) 12:41 PM CST (2/5)
Length of Visible Light 11h 33m
Length of Day
10h 41m
Waning Crescent, 26% of the Moon is Illuminated
Feb 5
Waning Crescent
Feb 10
New
Feb 17
First Quarter
Feb 25
Full
Mar 4
Last Quarter

Hourly Weather History & Observations

Time (CST) Temp. Dew Point Humidity Pressure Visibility Wind Dir Wind Speed Gust Speed Precip Events Conditions
12:15 AM 39.2 °F 35.6 °F 87% 29.99 in 10.0 mi Calm Calm - N/A   Overcast
12:35 AM 39.2 °F 35.6 °F 87% 29.99 in 10.0 mi Calm Calm - N/A   Overcast
12:55 AM 39.2 °F 35.6 °F 87% 29.99 in 10.0 mi Calm Calm - N/A   Overcast
1:35 AM 41.0 °F 35.6 °F 81% 29.98 in 10.0 mi Calm Calm - N/A   Overcast
1:55 AM 41.0 °F 37.4 °F 87% 29.97 in 10.0 mi Calm Calm - N/A   Overcast
2:35 AM 41.0 °F 35.6 °F 81% 29.96 in 10.0 mi Calm Calm - N/A   Mostly Cloudy
2:55 AM 41.0 °F 35.6 °F 81% 29.96 in 10.0 mi Calm Calm - N/A   Mostly Cloudy
3:15 AM 41.0 °F 37.4 °F 87% 29.97 in 10.0 mi Calm Calm - N/A   Overcast
3:35 AM 42.8 °F 35.6 °F 76% 29.96 in 10.0 mi Calm Calm - N/A   Overcast
3:55 AM 42.8 °F 37.4 °F 81% 29.97 in 10.0 mi Calm Calm - N/A   Overcast
4:15 AM 42.8 °F 37.4 °F 81% 29.97 in 10.0 mi Calm Calm - N/A   Overcast
4:35 AM 42.8 °F 37.4 °F 81% 29.98 in 10.0 mi Calm Calm - N/A   Overcast
4:55 AM 42.8 °F 37.4 °F 81% 29.98 in 10.0 mi Calm Calm - N/A   Overcast
5:15 AM 42.8 °F 37.4 °F 81% 29.98 in 10.0 mi Calm Calm - N/A   Overcast
5:35 AM 42.8 °F 37.4 °F 81% 29.98 in 10.0 mi Calm Calm - N/A   Overcast
5:55 AM 42.8 °F 37.4 °F 81% 29.99 in 10.0 mi Calm Calm - N/A   Overcast
6:15 AM 42.8 °F 39.2 °F 87% 30.00 in 10.0 mi Calm Calm - N/A   Overcast
6:35 AM 42.8 °F 39.2 °F 87% 30.00 in 10.0 mi Calm Calm - N/A   Overcast
6:55 AM 42.8 °F 39.2 °F 87% 30.01 in 10.0 mi Calm Calm - N/A   Overcast
7:15 AM 42.8 °F 39.2 °F 87% 30.02 in 10.0 mi Calm Calm - N/A   Overcast
7:35 AM 44.6 °F 39.2 °F 81% 30.03 in 10.0 mi Calm Calm - N/A   Overcast
7:55 AM 44.6 °F 39.2 °F 81% 30.03 in 10.0 mi Calm Calm - N/A   Overcast
8:15 AM 44.6 °F 39.2 °F 81% 30.04 in 10.0 mi Calm Calm - N/A   Overcast
8:35 AM 46.4 °F 39.2 °F 76% 30.04 in 10.0 mi Calm Calm - N/A   Overcast
8:55 AM 46.4 °F 39.2 °F 76% 30.05 in 10.0 mi Calm Calm - N/A   Mostly Cloudy
9:15 AM 48.2 °F 39.2 °F 71% 30.05 in 10.0 mi Calm Calm - N/A   Overcast
9:35 AM 48.2 °F 39.2 °F 71% 30.06 in 10.0 mi Calm Calm - N/A   Overcast
9:55 AM 50.0 °F 39.2 °F 66% 30.05 in 10.0 mi Calm Calm - N/A   Overcast
10:15 AM 51.8 °F 39.2 °F 62% 30.06 in 10.0 mi Calm Calm - N/A   Overcast
10:35 AM 51.8 °F 42.8 °F 71% 30.05 in 10.0 mi Calm Calm - N/A   Mostly Cloudy
10:55 AM 51.8 °F 42.8 °F 71% 30.06 in 10.0 mi Calm Calm - N/A   Overcast
11:15 AM 53.6 °F 42.8 °F 67% 30.05 in 10.0 mi Calm Calm - N/A   Overcast
11:35 AM 53.6 °F 42.8 °F 67% 30.05 in 10.0 mi Calm Calm - N/A   Overcast
11:55 AM 53.6 °F 42.8 °F 67% 30.05 in 10.0 mi Calm Calm - N/A   Overcast
12:15 PM 53.6 °F 44.6 °F 72% 30.04 in 10.0 mi Calm Calm - N/A   Overcast
12:35 PM 53.6 °F 44.6 °F 72% 30.03 in 10.0 mi Calm Calm - N/A   Overcast
12:55 PM 53.6 °F 44.6 °F 72% 30.02 in 10.0 mi Calm Calm - N/A   Overcast
1:15 PM 53.6 °F 44.6 °F 72% 30.01 in 10.0 mi Calm Calm - N/A   Overcast
1:35 PM 55.4 °F 44.6 °F 67% 30.01 in 10.0 mi Calm Calm - N/A   Overcast
1:55 PM 55.4 °F 44.6 °F 67% 30.00 in 10.0 mi South 4.6 mph - N/A   Overcast
2:15 PM 55.4 °F 46.4 °F 72% 30.00 in 10.0 mi WSW 3.5 mph - N/A   Overcast
2:35 PM 57.2 °F 46.4 °F 67% 30.00 in 10.0 mi Calm Calm - N/A   Overcast
2:55 PM 57.2 °F 46.4 °F 67% 30.00 in 10.0 mi Calm Calm - N/A   Overcast
3:15 PM 57.2 °F 46.4 °F 67% 30.00 in 10.0 mi South 3.5 mph - N/A   Overcast
3:35 PM 57.2 °F 46.4 °F 67% 29.99 in 10.0 mi Calm Calm - N/A   Mostly Cloudy
3:55 PM 57.2 °F 48.2 °F 72% 29.99 in 10.0 mi WSW 5.8 mph - N/A   Scattered Clouds
4:15 PM 57.2 °F 48.2 °F 72% 29.99 in 10.0 mi South 3.5 mph - N/A   Scattered Clouds
4:35 PM 57.2 °F 48.2 °F 72% 29.99 in 10.0 mi Calm Calm - N/A   Scattered Clouds
4:55 PM 55.4 °F 46.4 °F 72% 29.99 in 10.0 mi Calm Calm - N/A   Mostly Cloudy
5:15 PM 53.6 °F 46.4 °F 77% 29.99 in 10.0 mi SSW 3.5 mph - N/A   Mostly Cloudy
5:35 PM 53.6 °F 48.2 °F 82% 29.99 in 10.0 mi Calm Calm - N/A   Mostly Cloudy
5:55 PM 53.6 °F 46.4 °F 77% 30.00 in 10.0 mi Calm Calm - N/A   Overcast
6:15 PM 51.8 °F 48.2 °F 88% 30.01 in 10.0 mi Calm Calm - N/A   Overcast
6:35 PM 51.8 °F 46.4 °F 82% 30.01 in 10.0 mi Calm Calm - N/A   Mostly Cloudy
6:55 PM 50.0 °F 46.4 °F 87% 30.01 in 10.0 mi Calm Calm - N/A   Mostly Cloudy
7:15 PM 50.0 °F 46.4 °F 87% 30.02 in 10.0 mi Calm Calm - N/A   Mostly Cloudy
7:35 PM 46.4 °F 44.6 °F 93% 30.03 in 10.0 mi Calm Calm - N/A   Partly Cloudy
7:55 PM 46.4 °F 44.6 °F 93% 30.03 in 9.0 mi Calm Calm - N/A   Clear
8:15 PM 46.4 °F 44.6 °F 93% 30.03 in 4.0 mi Calm Calm - N/A   Clear
8:35 PM 44.6 °F 41.0 °F 87% 30.04 in 9.0 mi Calm Calm - N/A   Clear
9:15 PM 42.8 °F 39.2 °F 87% 30.05 in 4.0 mi Calm Calm - N/A   Clear
9:35 PM 42.8 °F 39.2 °F 87% 30.05 in 5.0 mi Calm Calm - N/A   Clear
9:55 PM 42.8 °F 41.0 °F 93% 30.06 in 0.8 mi Calm Calm - N/A   Unknown
10:15 PM 39.2 °F 37.4 °F 93% 30.06 in 0.8 mi Calm Calm - N/A   Unknown
10:35 PM 39.2 °F 37.4 °F 93% 30.06 in 0.2 mi Calm Calm - N/A   Unknown
10:55 PM 41.0 °F 39.2 °F 93% 30.06 in 1.5 mi Calm Calm - N/A   Clear
11:15 PM 37.4 °F 35.6 °F 93% 30.06 in 0.2 mi Calm Calm - N/A   Unknown
11:35 PM 39.2 °F 37.4 °F 93% 30.06 in 0.2 mi Calm Calm - N/A   Unknown
11:55 PM 39.2 °F 37.4 °F 93% 30.06 in 0.2 mi Calm Calm - N/A   Mostly Cloudy